Hourly Data Report for April 29, 2021

CLYDE RIVER A
NUNAVUT
Current Station Operator: NAVCAN

70°29'09.000" N
68°31'01.000" W
26.50 m
2400804
71090
YCY

Download Data

Hourly Data (April 2021)
Hourly Data Report for April 29, 2021
TIME
LST
Temp Definition
°C
Dew Point Definition
°C
Rel Hum Definition
%
Precip. Amount Definition
mm

Wind Dir Definition
10's deg

Wind Spd Definition
km/h
Visibility Definition
km
Stn Press Definition
kPa
Hmdx Definition


Wind Chill Definition


Weather Definition


00:00 -4.8 -5.1 98 0.0 15 24 16.1 102.75   -12 LegendNANA
01:00 -4.9 -4.9 100 0.0 12 22 16.1 102.71   -12 LegendNANA
02:00 -4.8 -4.8 100 0.0 13 26 2.4 102.70   -12 Snow
03:00 -4.7 -4.7 100 0.0 13 24 0.8 102.68   -12 Moderate Snow
04:00 -4.8 -4.8 100 0.2 12 13 16.1 102.67   -10 Snow
05:00 -4.6 -4.6 100 0.0 13 22 1.0 102.64   -11 Snow
06:00 -4.6 -4.6 100 0.0 14 18 1.2 102.61   -11 Snow
07:00 -4.8 -4.9 99 0.0 14 21 2.8 102.57   -11 Fog
08:00 -4.8 -4.9 99 0.0 13 21 3.6 102.51   -11 Snow
09:00 -4.8 -4.9 99 0.0 12 21 1.2 102.47   -11 Snow
10:00 -4.6 -4.6 100 0.0 13 11 6.4 102.45   -9 Snow
11:00 -4.0 -4.4 97 0.0 14 9 16.1 102.40   -8 LegendNANA
12:00 -3.5 -3.9 97 0.0 15 9 16.1 102.34   -7 LegendNANA
13:00 -3.2 -3.5 98 0.0 13 18 16.1 102.28   -9 LegendNANA
14:00 -3.0 -3.6 96 0.0 14 15 16.1 102.28   -8 LegendNANA
15:00 -3.0 -3.4 97 0.0 13 18 16.1 102.24   -9 LegendNANA
16:00 -2.6 -3.2 96 0.0 15 17 16.1 102.21   -8 LegendNANA
17:00 -2.9 -3.2 98 0.0 15 17 16.1 102.20   -8 LegendNANA
18:00 -3.3 -3.4 100 0.0 18 13 16.1 102.22   -8 LegendNANA
19:00 -3.9 -3.9 100 0.0 15 13 1.0 102.20   -9 Snow
20:00 -4.2 -4.2 100 0.0 14 9 0.4 102.20   -8 Heavy Snow
21:00 -4.5 -4.5 100 0.0 11 8 0.2 102.19   -8 Freezing Fog
22:00 -5.0 -5.0 100 0.0   0 0.2 102.20     Freezing Fog
23:00 -5.5 -5.6 100 0.0 7 5 0.2 102.18   -8 Freezing Fog

Notes on Data Quality.

Legend

  • E = Estimated
  • M = Missing
  • NA = Not Available*
  • [empty] = Indicates an unobserved value
Date modified: